FW0788 Weather Reports


Display with metric or nautical units.
time (UTC)temp
F
wind
direction
speed
MPH
gust
MPH
rain 1hr
in
rain 24hr
in
rain mn
in
humidity
%
barometer
mb
20260902230047 55 131 5.0 20.0 0.00 0.46 0.43 73 999.2
20260902224535 56 26 6.0 19.0 0.01 0.46 0.43 73 998.8
20260902223031 55 184 5.0 17.0 0.01 0.46 0.43 74 998.2
20260902221529 55 137 5.0 19.0 0.01 0.46 0.43 79 997.8
20260902220040 54 77 8.0 23.0 0.01 0.46 0.43 84 997.8
20260902214541 53 185 0.0 10.0 0.15 0.46 0.42 89 997.9
20260902213023 53 104 3.0 13.0 0.32 0.46 0.42 89 997.4
20260902211521 53 159 2.0 11.0 0.34 0.46 0.42 90 997.2
20260902210018 53 103 8.0 23.0 0.34 0.46 0.42 91 997.1
20260902204515 54 94 10.0 34.0 0.17 0.28 0.25 90 997.7
20260902203012 55 318 5.0 15.0 0.02 0.13 0.09 91 997.1
20260902201525 55 190 4.0 17.0 0.01 0.12 0.08 91 997.2
20260902200008 55 142 5.0 21.0 0.01 0.12 0.08 91 997.3
20260902194504 55 170 7.0 26.0 0.00 0.11 0.07 89 997.4
20260902193002 55 82 7.0 21.0 0.00 0.11 0.07 88 997.4
20260902191600 55 280 4.0 17.0 0.00 0.11 0.07 89 997.5
20260902190056 55 129 7.0 19.0 0.00 0.11 0.07 88 997.9
20260902184603 55 209 3.0 19.0 0.00 0.11 0.07 89 997.9
20260902183102 55 283 4.0 23.0 0.01 0.11 0.07 89 998.0
20260902181549 54 156 11.0 19.0 0.01 0.11 0.07 90 998.4
20260902180045 54 265 0.0 17.0 0.03 0.11 0.07 91 998.4
20260902174551 54 241 6.0 17.0 0.06 0.11 0.07 91 998.6
20260902173105 54 113 2.0 14.0 0.06 0.10 0.06 91 998.8
20260902171542 54 157 6.0 23.0 0.06 0.10 0.06 91 999.1
20260902170035 54 112 2.0 17.0 0.04 0.08 0.04 91 999.4
20260902164505 54 255 7.0 17.0 0.01 0.05 0.01 89 999.5
20260902163003 55 132 7.0 22.0 0.00 0.04 0.00 88 999.9
20260902161601 55 155 4.0 18.0 0.00 0.04 0.00 89 1000.3
20260902160105 54 159 3.0 20.0 0.00 0.04 0.00 89 1000.6
20260902154555 54 109 3.0 22.0 0.00 0.04 0.00 89 1000.8
20260902153053 54 343 6.0 21.0 0.00 0.04 0.00 89 1000.9
20260902151549 54 182 8.0 26.0 0.00 0.04 0.00 88 1001.3
20260902150047 54 265 3.0 15.0 0.00 0.04 0.00 89 1001.5
20260902144548 54 163 8.0 18.0 0.00 0.04 0.00 90 1001.4
20260902143041 54 129 5.0 15.0 0.00 0.04 0.00 89 1001.7
20260902141549 54 115 4.0 14.0 0.01 0.04 0.00 90 1001.9
20260902140036 53 226 0.0 9.0 0.01 0.04 0.00 90 1002.2
20260902134534 53 122 0.0 16.0 0.01 0.04 0.04 90 1002.6
20260902133040 53 140 0.0 12.0 0.02 0.04 0.04 90 1002.9
20260902131530 53 181 3.0 12.0 0.02 0.03 0.03 90 1003.0
20260902130028 53 94 3.0 10.0 0.02 0.03 0.03 91 1003.3
20260902124527 53 186 2.0 19.0 0.02 0.03 0.03 90 1003.7
20260902123023 53 188 4.0 12.0 0.02 0.02 0.02 90 1003.9
20260902121522 53 10 1.0 11.0 0.01 0.01 0.01 89 1004.1
20260902120025 53 107 2.0 9.0 0.01 0.01 0.01 89 1004.2
20260902114535 53 80 5.0 15.0 0.01 0.02 0.01 88 1004.4
20260902113021 54 154 2.0 12.0 0.00 0.02 0.00 85 1004.5
20260902111520 54 105 2.0 12.0 0.00 0.02 0.00 86 1004.7
20260902110019 54 157 3.0 12.0 0.00 0.02 0.00 85 1004.9
20260902104522 54 102 4.0 14.0 0.00 0.07 0.00 84 1005.0
20260902103022 54 177 3.0 12.0 0.00 0.07 0.00 85 1005.0
20260902101518 54 198 4.0 14.0 0.00 0.07 0.00 84 1005.1
20260902100017 54 222 1.0 11.0 0.00 0.07 0.00 83 1005.1
20260902094517 54 88 3.0 11.0 0.00 0.10 0.00 83 1004.9
20260902093016 54 182 2.0 11.0 0.00 0.10 0.00 84 1005.0
20260902091519 54 168 3.0 15.0 0.00 0.10 0.00 83 1004.9
20260902090018 54 95 2.0 9.0 0.00 0.10 0.00 83 1005.0
20260902084514 54 110 4.0 14.0 0.00 0.13 0.00 82 1005.2
20260902083012 54 193 3.0 14.0 0.00 0.13 0.00 82 1005.3
20260902081511 54 182 2.0 17.0 0.00 0.13 0.00 82 1005.2
20260902080010 54 234 2.0 16.0 0.00 0.13 0.00 82 1005.2
20260902074514 54 111 1.0 18.0 0.00 0.13 0.00 83 1005.2
20260902073009 54 147 2.0 14.0 0.00 0.13 0.00 83 1005.1
20260902071508 54 192 0.0 14.0 0.00 0.13 0.00 84 1005.0
20260902070008 53 215 4.0 18.0 0.00 0.13 0.00 86 1005.4
20260902064508 54 49 3.0 10.0 0.00 0.13 0.00 85 1005.4
20260902063007 55 163 4.0 12.0 0.00 0.13 0.00 79 1005.5
20260902061506 55 76 4.0 15.0 0.00 0.13 0.00 78 1005.7
20260902060006 56 148 6.0 17.0 0.00 0.13 0.00 76 1005.7
20260902054506 56 155 3.0 15.0 0.00 0.14 0.00 76 1005.8
20260902053006 56 109 7.0 18.0 0.00 0.14 0.00 75 1006.0
20260902051502 56 150 4.0 13.0 0.00 0.14 0.00 74 1006.0
20260902050006 56 113 2.0 8.0 0.00 0.14 0.00 75 1006.1
20260902044507 56 117 4.0 10.0 0.00 0.14 0.00 74 1006.1
20260902043102 56 92 5.0 13.0 0.00 0.14 0.00 72 1006.1
20260902041603 57 167 8.0 18.0 0.00 0.14 0.00 72 1006.2
20260902040100 56 31 3.0 11.0 0.00 0.14 0.00 73 1006.3
20260902034605 56 96 3.0 12.0 0.00 0.14 0.00 75 1006.4
20260902033058 56 192 4.0 14.0 0.00 0.14 0.00 77 1006.6
20260902031558 56 173 4.0 11.0 0.00 0.14 0.00 76 1006.7
20260902030158 55 163 4.0 10.0 0.00 0.14 0.00 78 1007.0
20260902024557 56 252 3.0 14.0 0.00 0.14 0.00 78 1007.2
20260902023056 56 196 4.0 10.0 0.00 0.14 0.00 73 1007.2
20260902021608 56 148 3.0 12.0 0.00 0.14 0.00 75 1007.4
20260902020057 56 183 2.0 9.0 0.00 0.14 0.00 75 1007.6
20260902014557 57 248 2.0 15.0 0.00 0.14 0.00 73 1007.7
20260902013054 57 175 6.0 18.0 0.00 0.14 0.00 73 1007.6
20260902011556 56 171 4.0 17.0 0.00 0.14 0.00 73 1007.8
20260902010051 56 192 5.0 12.0 0.00 0.14 0.00 72 1008.0
20260902004550 57 31 5.0 12.0 0.00 0.14 0.00 71 1008.1
20260902003046 55 171 3.0 14.0 0.00 0.14 0.00 73 1008.0
20260902001546 56 134 3.0 13.0 0.00 0.14 0.00 70 1008.0
20260902000051 56 169 5.0 15.0 0.00 0.14 0.00 72 1008.1
20260901234546 55 167 6.0 15.0 0.00 0.14 0.00 73 1008.4
20260901233046 55 93 3.0 13.0 0.00 0.14 0.00 74 1008.5
20260901231543 55 132 3.0 14.0 0.00 0.14 0.00 73 1008.3